Wind_Speed
4 5 6 6 5 3 5 7 9 11 10 8 6 6 6 7 6 6 6 6 6 5 6 5 5 5 5 5 5 5 5 5 6 6 6 7 7 7 8 8 8 8 9 9 10 10 10 10 11
2 2 3 4 2 3 5 8 11 13 12 10 9 7 7 7 6 7 7 7 6 6 6 6 5 5 5 5 5 5 5 6 6 6 7 7 8 8 8 8 9 9 9 9 9 9 9 9 10
3 1 2 2 2 2 3 6 11 15 14 13 13 11 9 8 8 7 8 7 6 6 6 6 6 6 6 6 6 6 6 6 7 7 8 8 9 10 10 10 10 10 10 10 10 10 10 10 10
6 3 1 3 4 2 3 6 11 15 16 17 17 15 12 10 10 9 9 7 6 7 7 6 6 6 6 7 7 7 8 8 9 9 10 10 11 11 12 12 12 12 12 12 12 12 12 12 11
8 5 4 5 4 3 4 7 12 17 20 21 20 18 14 12 10 9 9 8 7 7 7 7 7 7 8 8 9 9 10 10 11 11 12 13 14 14 14 15 15 15 15 15 14 14 14 14 14
10 7 5 5 6 5 4 8 15 21 23 23 22 20 16 12 10 9 10 9 8 8 7 8 8 9 10 10 11 11 12 13 13 13 14 14 15 16 17 17 17 17 18 17 17 17 16 16 16
12 8 7 8 9 6 6 10 17 23 25 26 24 20 16 14 12 10 11 10 9 9 9 9 10 10 11 12 14 14 15 15 15 16 16 16 17 17 18 18 19 19 19 20 19 19 20 19 19
14 10 11 13 14 12 10 12 18 24 27 27 25 21 16 14 12 11 12 12 11 11 10 11 12 13 14 15 16 16 17 17 17 17 18 18 19 19 19 20 20 21 21 21 22 22 22 22 21
16 13 15 18 18 17 14 16 20 25 27 27 25 23 20 18 16 14 13 13 13 13 13 14 15 16 17 17 17 18 19 19 19 20 20 21 21 22 22 23 23 24 24 24 24 24 24 24 24
18 15 19 22 23 22 19 19 22 25 27 27 28 26 22 22 20 18 16 15 15 15 16 17 18 18 19 20 21 21 21 22 22 23 23 23 24 25 25 26 26 26 25 25 25 25 25 25 25
20 17 22 24 26 24 23 22 24 27 29 29 29 28 25 24 22 22 21 20 18 18 18 19 21 22 23 24 24 24 24 24 25 25 26 26 27 28 28 28 28 29 29 28 27 26 25 25 26
22 20 24 27 27 26 25 25 26 28 29 31 32 31 28 26 25 24 23 21 21 22 22 22 24 25 26 26 26 27 27 27 27 28 29 30 31 31 31 31 31 31 31 30 29 28 28 28 28
22 22 24 28 29 28 27 27 28 28 29 30 30 28 27 27 26 25 25 25 25 25 25 25 25 27 28 28 28 29 30 30 30 31 32 32 33 34 34 34 33 33 32 31 31 30 30 29 28
20 20 21 24 26 26 27 26 27 27 26 25 25 26 26 27 27 26 26 25 26 27 27 28 28 28 29 30 31 32 33 33 34 34 34 35 35 36 36 36 35 34 33 33 33 32 31 30 29
18 17 18 20 22 23 24 23 22 21 21 22 22 23 24 25 24 24 25 26 26 27 28 29 29 30 30 32 33 34 35 35 36 37 37 37 37 37 37 35 35 35 34 35 34 33 33 32 31
14 15 16 17 19 21 21 20 18 18 18 19 20 21 22 23 23 23 23 24 25 26 27 28 29 30 32 33 35 36 37 37 37 38 39 39 39 38 38 36 35 35 36 36 35 34 34 33 32
10 10 12 14 16 18 20 18 18 17 17 18 19 19 20 21 21 21 22 23 24 26 27 29 30 31 33 34 36 37 38 38 39 39 40 40 40 39 38 37 37 37 36 36 36 35 35 34 33
6 7 8 11 14 18 20 20 19 18 18 17 18 18 19 18 19 19 20 22 24 26 28 29 31 32 34 35 36 37 37 38 39 40 40 40 40 40 39 39 39 39 38 38 37 36 36 35 35
7 9 9 10 12 13 16 20 20 18 16 15 15 15 14 15 15 17 18 21 23 25 27 29 30 31 33 34 35 36 37 38 39 39 39 39 39 39 39 39 39 39 38 38 37 37 37 37 35
9 9 8 8 9 11 13 15 17 15 13 11 10 10 10 11 12 15 17 19 21 23 25 27 28 30 32 34 35 36 37 37 38 38 38 38 38 38 38 38 38 39 38 38 38 37 37 37 37
7 7 8 10 11 13 16 16 16 13 10 9 6 7 8 10 12 14 16 18 20 22 24 26 28 30 32 33 35 36 36 37 38 38 37 37 37 37 37 37 37 37 37 37 38 38 37 37 37
7 8 10 12 14 16 18 20 18 13 9 5 3 4 6 9 11 13 15 17 19 21 23 25 27 29 31 32 34 35 35 36 37 37 37 37 37 37 36 36 36 36 36 36 37 37 37 37 37
7 8 9 11 14 16 17 17 11 7 2 1 2 4 7 9 11 13 16 18 20 22 23 26 28 30 31 32 33 34 35 36 36 37 37 37 38 37 36 35 34 34 34 35 35 35 35 35 35
7 9 9 10 12 13 13 12 9 7 5 5 5 7 9 11 13 16 18 20 22 24 26 28 29 31 32 32 33 34 35 36 37 37 38 37 38 38 37 36 35 35 34 34 35 34 34 34 34
8 9 9 9 10 11 11 12 12 10 7 7 8 10 13 15 17 19 21 24 26 28 30 32 33 34 34 35 35 36 37 37 38 38 38 38 39 39 39 38 37 37 36 35 35 35 35 34 34
7 8 9 9 10 10 9 11 12 10 9 10 12 14 16 19 21 23 26 28 30 32 35 36 37 38 38 38 38 38 38 39 39 39 39 39 39 39 39 39 39 39 37 36 36 35 36 35 35
7 8 9 9 10 9 9 10 12 11 11 13 15 18 20 23 25 27 29 31 33 36 37 39 39 39 39 39 39 39 39 39 39 39 39 39 39 40 40 40 40 40 39 38 37 37 37 37 36
9 10 9 9 9 9 10 12 14 14 14 16 19 21 24 26 27 29 31 34 36 38 39 40 41 41 41 40 40 40 40 40 40 40 40 40 39 40 40 40 40 40 40 40 40 39 39 39 39
10 11 10 10 11 12 14 15 15 16 17 19 22 24 27 28 29 30 33 35 37 39 40 41 41 41 41 41 41 41 40 40 40 40 40 39 39 39 40 40 40 40 40 41 41 41 41 41 41
8 11 11 11 12 14 17 18 17 19 20 22 24 26 27 28 29 31 34 36 38 40 40 41 41 41 41 41 41 41 41 41 41 41 40 39 39 40 40 39 40 41 41 42 43 43 43 43 43
Wind_Direction
91 101 98 83 65 21 358 7 3 344 338 343 341 332 339 346 343 333 330 332 334 347 345 335 327 320 315 313 316 323 330 336 339 341 340 338 338 338 339 340 341 342 345 347 350 352 353 355 357
60 106 110 98 73 347 353 1 345 334 330 333 328 326 327 331 326 319 319 322 334 341 335 326 321 320 316 313 315 321 328 332 333 334 332 329 328 327 326 325 324 325 327 328 330 333 334 337 339
332 295 132 130 199 304 349 352 337 330 323 321 323 325 323 324 319 318 319 322 331 334 325 319 320 320 317 313 311 313 316 321 321 319 319 318 317 317 316 313 311 309 310 311 312 313 314 317 319
312 293 195 191 225 274 323 325 317 312 310 312 319 318 319 322 319 321 320 322 323 322 317 311 313 312 309 306 306 308 309 310 310 309 309 307 307 306 305 303 301 299 297 296 297 298 299 299 300
302 288 237 216 248 290 301 301 302 301 304 307 311 312 314 317 314 315 315 315 315 315 311 306 306 307 305 303 304 305 305 305 305 305 305 303 302 301 299 297 296 294 293 290 286 286 287 287 288
294 279 236 223 247 259 263 280 287 291 296 302 306 306 305 307 304 304 308 308 308 306 301 299 298 300 300 301 301 301 302 303 302 301 302 303 302 301 298 296 293 292 290 288 282 279 279 280 279
284 262 213 208 212 216 222 258 273 282 288 293 298 300 301 297 296 300 300 303 302 298 295 293 294 295 296 298 297 298 299 300 300 300 301 302 303 302 301 299 296 294 291 287 282 276 273 272 272
277 252 212 201 201 208 223 250 268 276 283 290 294 298 303 301 293 293 292 293 291 286 287 291 294 295 296 299 298 297 298 301 301 302 302 302 302 301 300 300 298 294 293 288 282 276 272 268 267
272 244 213 205 207 218 229 248 263 271 279 288 292 295 298 298 293 292 287 283 283 283 286 289 293 296 297 298 299 297 298 301 302 302 302 301 302 301 300 299 298 296 294 293 285 278 271 266 264
266 238 215 217 220 228 236 248 263 271 277 285 291 295 294 296 293 292 289 280 277 278 283 287 289 291 293 294 295 296 297 299 300 299 300 301 301 300 298 297 298 297 295 294 292 284 275 267 263
257 233 219 220 226 236 242 248 258 267 274 281 287 291 292 293 292 291 289 284 279 281 282 285 288 288 289 291 292 293 294 294 296 297 297 297 298 298 297 294 295 295 293 294 293 289 283 275 267
249 231 221 221 228 237 244 251 255 262 269 277 283 287 290 291 290 287 286 283 285 284 284 284 287 287 288 289 291 291 291 290 291 294 295 296 296 296 294 292 291 291 290 290 291 287 285 280 274
245 234 223 222 229 237 245 252 258 262 267 274 279 283 287 289 288 287 285 282 288 287 287 286 285 287 288 289 288 289 290 290 290 290 291 292 293 293 293 293 291 289 286 285 285 285 283 281 279
239 235 230 227 230 237 245 253 260 265 270 273 276 281 285 287 288 288 287 288 290 290 289 289 290 288 288 289 289 290 290 291 290 290 290 290 290 292 293 291 290 288 284 282 281 279 278 279 280
229 228 227 228 231 238 246 253 261 266 269 271 275 281 284 286 288 288 287 289 289 290 291 292 291 291 291 290 290 289 291 291 291 291 291 291 291 291 291 289 287 287 285 282 280 278 277 277 278
213 217 217 222 230 240 248 253 260 263 267 271 275 279 283 285 287 287 287 287 287 288 289 290 291 292 292 293 293 293 293 292 292 291 291 291 291 290 289 288 286 283 283 282 280 279 276 276 276
201 215 221 227 237 243 249 254 263 262 265 271 277 281 282 284 284 285 286 287 288 289 291 292 293 293 294 293 293 294 293 292 292 291 291 291 290 289 287 287 285 283 281 280 279 277 276 276 275
224 243 243 247 252 251 255 259 263 259 260 266 274 280 281 281 285 288 289 290 291 293 294 295 295 295 295 294 294 294 293 292 292 291 290 289 288 287 286 285 284 282 281 279 277 275 274 274 274
277 276 276 271 266 263 258 263 260 255 255 261 268 276 279 282 286 289 291 293 294 296 297 298 298 297 297 296 296 295 294 294 292 291 290 289 287 286 285 284 283 281 279 278 276 274 273 273 272
302 306 309 308 306 292 280 276 271 269 259 266 266 275 280 288 295 298 299 300 301 302 302 302 301 300 299 298 298 297 297 295 294 293 291 289 287 285 284 282 281 279 278 276 275 273 272 271 270
319 327 330 327 329 325 319 316 304 296 272 268 274 285 289 299 303 305 307 308 308 307 306 304 302 301 300 299 299 299 298 297 296 295 293 291 288 286 284 282 280 278 277 275 273 272 270 268 267
334 332 333 331 334 332 327 326 320 309 287 260 290 306 312 312 313 314 314 313 312 310 309 308 306 304 302 301 300 299 299 298 298 297 296 294 291 289 286 284 281 279 277 275 272 271 269 266 265
348 340 336 341 340 334 330 330 335 334 332 158 0 345 334 329 326 325 322 319 317 316 315 313 311 309 307 305 304 302 301 300 299 298 297 295 293 291 289 286 284 281 279 276 273 270 267 264 262
340 338 338 343 345 349 352 5 22 39 60 51 19 357 347 342 336 332 327 325 324 322 320 318 317 315 313 311 308 306 305 303 302 300 299 297 295 293 291 288 286 283 281 277 274 271 267 264 260
333 328 328 334 343 353 360 26 34 36 34 20 6 353 349 341 338 336 333 331 330 327 325 324 322 321 319 316 313 310 308 306 304 302 300 298 296 294 291 289 286 284 281 278 275 271 267 263 259
329 322 325 331 339 347 3 15 13 16 11 3 356 350 344 341 340 338 335 333 331 329 327 326 325 323 320 318 315 313 311 309 307 304 302 299 296 294 291 288 286 284 282 279 275 272 268 264 259
350 343 339 332 330 333 341 348 356 3 3 357 351 347 344 342 340 337 335 332 331 329 328 326 324 322 321 319 317 315 313 310 308 306 303 300 297 294 291 288 286 284 281 278 275 272 268 265 261
334 337 339 339 337 330 328 333 345 360 2 354 348 346 344 341 338 336 334 332 330 328 326 325 325 324 322 321 319 317 314 312 310 307 304 301 298 294 291 289 286 283 281 278 276 272 269 265 262
323 329 335 342 337 328 327 333 348 355 355 350 347 345 341 338 335 333 331 330 328 327 326 326 326 325 324 322 321 319 317 314 311 308 305 302 300 297 293 290 287 284 281 279 276 274 270 266 262
322 325 329 337 336 332 329 335 344 349 349 346 343 340 336 333 330 329 329 328 328 327 326 327 327 326 326 325 324 322 320 317 314 311 308 304 302 298 295 291 288 285 283 280 278 275 271 268 263
Height
5936 5935 5935 5935 5935 5934 5932 5932 5931 5931 5931 5932 5932 5931 5930 5929 5929 5930 5927 5925 5924 5923 5922 5922 5922 5921 5921 5920 5920 5919 5918 5918 5917 5916 5916 5915 5914 5914 5913 5912 5911 5910 5909 5909 5908 5907 5906 5905 5904
5936 5935 5935 5935 5934 5933 5932 5931 5930 5929 5929 5930 5930 5930 5929 5928 5927 5926 5925 5924 5923 5922 5922 5922 5921 5921 5920 5920 5919 5918 5918 5917 5916 5916 5915 5914 5913 5913 5912 5911 5910 5910 5909 5908 5907 5906 5905 5904 5904
5936 5935 5935 5934 5933 5932 5931 5930 5929 5928 5927 5928 5928 5928 5928 5927 5925 5924 5923 5922 5922 5922 5921 5921 5921 5920 5920 5919 5918 5918 5917 5916 5915 5914 5914 5913 5912 5911 5911 5910 5909 5908 5907 5907 5906 5905 5904 5903 5903
5935 5934 5934 5934 5932 5931 5929 5928 5927 5928 5927 5926 5927 5927 5926 5926 5924 5922 5922 5921 5921 5921 5921 5920 5920 5919 5918 5918 5917 5916 5916 5915 5914 5913 5912 5911 5910 5910 5909 5908 5907 5906 5905 5905 5904 5903 5902 5901 5901
5934 5933 5933 5932 5931 5929 5927 5925 5925 5926 5925 5925 5926 5926 5925 5925 5923 5921 5921 5920 5920 5920 5919 5919 5918 5917 5917 5916 5915 5915 5914 5913 5912 5911 5910 5909 5908 5907 5906 5905 5905 5904 5903 5902 5901 5900 5900 5899 5898
5933 5932 5932 5931 5929 5926 5925 5923 5923 5923 5923 5923 5924 5924 5923 5923 5922 5920 5919 5919 5919 5918 5918 5917 5916 5916 5915 5914 5913 5912 5911 5910 5909 5908 5907 5906 5905 5904 5903 5902 5901 5900 5899 5899 5898 5897 5896 5896 5895
5931 5930 5930 5928 5926 5923 5923 5922 5921 5920 5920 5921 5921 5921 5920 5920 5920 5919 5918 5917 5916 5916 5915 5915 5914 5913 5912 5911 5910 5909 5908 5907 5906 5905 5904 5903 5902 5901 5899 5898 5897 5896 5895 5894 5893 5893 5892 5892 5891
5927 5928 5926 5924 5922 5919 5918 5918 5918 5917 5917 5918 5918 5918 5917 5917 5917 5917 5916 5915 5914 5914 5913 5912 5911 5910 5909 5908 5907 5906 5904 5903 5902 5901 5900 5899 5898 5897 5895 5894 5892 5891 5890 5889 5889 5888 5887 5887 5886
5922 5925 5922 5920 5918 5916 5915 5914 5914 5914 5914 5914 5914 5914 5914 5914 5914 5914 5914 5913 5912 5911 5910 5909 5908 5907 5905 5904 5903 5901 5900 5899 5898 5897 5896 5895 5894 5892 5891 5889 5887 5886 5885 5884 5883 5882 5881 5881 5881
5917 5919 5918 5916 5914 5913 5912 5911 5911 5911 5910 5910 5910 5910 5910 5910 5910 5910 5910 5910 5908 5908 5907 5905 5904 5903 5901 5900 5898 5897 5896 5895 5894 5892 5891 5890 5889 5887 5885 5884 5882 5880 5879 5878 5877 5876 5875 5875 5874
5911 5914 5913 5912 5910 5909 5909 5908 5908 5908 5907 5907 5906 5906 5906 5906 5905 5905 5905 5904 5903 5903 5902 5900 5899 5898 5896 5894 5893 5892 5891 5890 5889 5887 5886 5884 5883 5881 5879 5878 5876 5874 5873 5871 5870 5869 5868 5868 5867
5905 5906 5907 5906 5905 5905 5905 5905 5905 5905 5905 5904 5903 5902 5901 5901 5901 5900 5899 5898 5898 5898 5897 5896 5894 5893 5891 5889 5887 5886 5885 5884 5883 5882 5880 5878 5877 5875 5873 5871 5869 5868 5866 5865 5864 5862 5861 5860 5860
5898 5899 5900 5900 5900 5900 5900 5901 5901 5901 5901 5900 5899 5897 5896 5896 5895 5894 5893 5891 5891 5891 5891 5890 5889 5887 5885 5883 5881 5880 5878 5877 5876 5875 5873 5872 5870 5868 5865 5863 5861 5860 5859 5858 5857 5856 5854 5853 5852
5892 5893 5894 5894 5895 5895 5896 5897 5897 5897 5896 5896 5894 5893 5892 5891 5890 5889 5887 5886 5886 5885 5884 5883 5882 5881 5879 5877 5874 5873 5871 5870 5869 5867 5865 5864 5862 5860 5858 5856 5854 5852 5850 5850 5849 5848 5847 5846 5845
5887 5888 5889 5890 5890 5891 5892 5893 5893 5893 5893 5892 5891 5890 5888 5886 5886 5885 5884 5882 5882 5880 5879 5877 5875 5874 5872 5869 5867 5865 5863 5862 5860 5858 5856 5855 5853 5851 5849 5847 5845 5843 5842 5840 5840 5839 5839 5838 5838
5883 5885 5886 5887 5887 5887 5890 5889 5889 5888 5888 5888 5888 5887 5885 5883 5882 5881 5879 5878 5877 5876 5874 5872 5870 5868 5865 5863 5861 5858 5856 5854 5852 5850 5847 5846 5844 5842 5840 5838 5837 5835 5833 5832 5831 5830 5830 5830 5830
5881 5882 5883 5884 5883 5884 5884 5884 5884 5884 5884 5884 5884 5883 5882 5881 5879 5877 5876 5874 5873 5871 5869 5867 5864 5862 5859 5857 5854 5852 5849 5846 5843 5841 5839 5836 5834 5832 5830 5829 5827 5826 5825 5823 5823 5822 5821 5821 5821
5880 5880 5880 5881 5880 5880 5880 5879 5879 5879 5879 5879 5879 5879 5877 5876 5875 5873 5872 5870 5868 5866 5864 5861 5858 5856 5853 5850 5847 5844 5841 5838 5835 5832 5830 5827 5825 5823 5821 5819 5817 5816 5815 5814 5813 5813 5813 5812 5812
5877 5877 5877 5877 5877 5877 5876 5875 5873 5874 5874 5874 5874 5874 5873 5872 5871 5869 5868 5866 5863 5861 5858 5855 5852 5849 5845 5842 5839 5836 5832 5829 5826 5823 5820 5818 5815 5813 5811 5809 5807 5806 5805 5804 5803 5803 5803 5803 5803
5874 5874 5874 5874 5873 5873 5872 5870 5869 5868 5869 5870 5869 5870 5869 5869 5867 5865 5864 5861 5859 5856 5853 5850 5846 5843 5839 5835 5831 5827 5824 5820 5817 5814 5811 5808 5805 5803 5801 5799 5797 5796 5795 5794 5793 5793 5793 5793 5793
5873 5873 5872 5872 5870 5869 5867 5867 5865 5863 5864 5866 5866 5866 5866 5865 5864 5862 5860 5857 5854 5852 5848 5845 5841 5837 5832 5828 5823 5819 5815 5811 5808 5804 5801 5798 5795 5793 5791 5789 5787 5786 5784 5784 5783 5783 5783 5783 5783
5872 5871 5871 5869 5868 5866 5866 5865 5863 5860 5861 5863 5863 5863 5863 5862 5861 5858 5856 5853 5850 5847 5843 5839 5835 5830 5825 5821 5816 5812 5807 5803 5799 5795 5791 5787 5784 5782 5780 5778 5777 5775 5774 5773 5772 5772 5772 5773 5773
5871 5870 5870 5869 5867 5866 5864 5863 5862 5859 5859 5860 5862 5861 5861 5859 5857 5854 5852 5849 5845 5842 5837 5833 5828 5823 5818 5813 5808 5803 5799 5794 5790 5785 5781 5778 5774 5771 5769 5767 5766 5764 5763 5762 5761 5761 5761 5762 5763
5869 5869 5868 5868 5867 5866 5864 5862 5861 5860 5860 5860 5860 5859 5857 5855 5853 5850 5847 5843 5839 5835 5831 5826 5821 5816 5810 5804 5799 5794 5790 5785 5780 5776 5771 5768 5764 5760 5758 5756 5754 5753 5752 5751 5750 5750 5750 5751 5752
5869 5869 5869 5867 5866 5865 5863 5862 5862 5860 5859 5859 5857 5855 5853 5851 5848 5845 5841 5837 5832 5828 5823 5818 5812 5807 5801 5796 5791 5785 5780 5775 5771 5766 5762 5758 5754 5750 5747 5745 5743 5741 5740 5740 5739 5739 5739 5740 5741
5869 5868 5868 5866 5864 5863 5862 5861 5861 5859 5857 5856 5854 5851 5849 5846 5842 5839 5835 5830 5826 5821 5816 5810 5805 5799 5793 5788 5782 5777 5771 5766 5761 5756 5751 5747 5743 5740 5736 5733 5731 5730 5728 5728 5727 5727 5727 5728 5730
5868 5866 5865 5864 5862 5861 5860 5859 5858 5856 5855 5852 5850 5847 5843 5840 5836 5833 5829 5824 5820 5815 5809 5803 5798 5792 5786 5780 5774 5768 5762 5757 5751 5746 5741 5737 5732 5729 5725 5722 5719 5717 5716 5715 5715 5715 5715 5716 5718
5867 5865 5864 5862 5860 5858 5857 5856 5855 5853 5851 5849 5845 5842 5838 5835 5832 5828 5824 5819 5814 5809 5803 5797 5791 5784 5778 5772 5765 5759 5753 5747 5741 5736 5731 5726 5721 5717 5713 5710 5707 5705 5703 5702 5702 5702 5702 5704 5705
5866 5865 5862 5860 5858 5857 5854 5855 5852 5850 5847 5844 5841 5838 5834 5831 5828 5824 5819 5815 5809 5803 5797 5790 5784 5777 5771 5764 5757 5751 5744 5738 5731 5725 5720 5715 5710 5706 5702 5698 5695 5692 5690 5688 5687 5687 5688 5689 5691
5863 5862 5860 5859 5857 5854 5852 5854 5849 5847 5844 5841 5838 5835 5832 5828 5825 5820 5816 5810 5804 5798 5791 5784 5777 5770 5763 5756 5749 5742 5735 5728 5722 5715 5709 5704 5699 5694 5690 5686 5682 5679 5677 5674 5673 5672 5673 5673 5675